User: anonymous   Login
Location: Unspecified
(0.0000°N, 0.0000°E)
Time: 09:15:59
(UTC+00:00)
Language:

NNS O-2 - Orbit

View from above orbital plane
View from above orbital plane
View from above satellite
View from above satellite

Ground track
Ground track

The orbit data is extracted from the following two-line orbital elements,

1   965U 64083D   19287.82364611 +.00000050 +00000-0 +56712-4 0  9999
2   965 090.0211 193.0817 0039688 201.3231 225.4231 13.56733686713200
Epoch (UTC): 14 October 2019 19:46:03
Eccentricity: 0.0039688
inclination: 90.0211°
perigee height: 1018 km
apogee height: 1077 km
right ascension of ascending node: 193.0817°
argument of perigee: 201.3231°
revolutions per day: 13.56733686
mean anomaly at epoch: 225.4231°
orbit number at epoch: 71320

The dashed part of the orbit path shows where the satellite is in the earth's shadow,  

DLR